Hourly Data Report for September 30, 2017

All times are specified in Local Standard Time (LST). Add 1 hour to adjust for Daylight Saving Time where and when it is observed.

WOODSTOCK NEWBRIDGE
NEW BRUNSWICK

46°09'08.000" N
67°32'34.000" W
154.00 m
8105603
71606
EWD

Download Data

Hourly Data (September 2017)
Hourly Data Report for September 30, 2017
Temp Definition
°C
Dew Point Temp Definition
°C
Rel Hum Definition
%
Wind Dir Definition
10's deg

Wind Spd Definition
km/h
Visibility Definition
km
Stn Press Definition
kPa
Hmdx Definition


Wind Chill Definition


Weather Definition


TIME
00:00 1.6 0.5 92   0   100.23     LegendNANA
01:00 -0.2 -1.1 93   0   100.27     LegendNANA
02:00 -0.7 -1.3 96 35 2   100.30   -1 LegendNANA
03:00 -1.3 -2.2 94   0   100.33     LegendNANA
04:00 -1.8 -2.7 94   0   100.38     LegendNANA
05:00 -1.0 -1.5 96   0   100.46     LegendNANA
06:00 -0.2 -0.6 97   0   100.52     LegendNANA
07:00 -0.1 -0.6 96 35 1   100.60   0 LegendNANA
08:00 1.8 1.3 96 0 1   100.67     LegendNANA
09:00 3.4 1.4 87 31 5   100.73     LegendNANA
10:00 5.6 1.5 75 30 5   100.76     LegendNANA
11:00 7.6 0.9 63 31 3   100.75     LegendNANA
12:00 9.0 -0.7 51 34 5   100.73     LegendNANA
13:00 9.7 -0.6 48 33 7   100.70     LegendNANA
14:00 9.5 -0.4 50 30 9   100.69     LegendNANA
15:00 10.0 0.1 50 33 6   100.66     LegendNANA
16:00 10.7 -0.3 46 29 3   100.65     LegendNANA
17:00 10.3 -0.5 47 34 3   100.63     LegendNANA
18:00 7.3 0.9 64   0   100.65     LegendNANA
19:00 3.2 0.8 85   0   100.68     LegendNANA
20:00 1.6 0.3 91   0   100.71     LegendNANA
21:00 0.3 -1.0 91   0   100.72     LegendNANA
22:00 -0.6 -1.6 93   0   100.70     LegendNANA
23:00 -1.2 -1.9 95   0   100.70     LegendNANA

Notes on Data Quality.

Legend

  • E = Estimated
  • M = Missing
  • NA = Not Available
  • ‡ = Partner data that is not subject to review by the National Climate Archives
Date modified: